"2009-07-16 00:00:00",1065891,1.621,163.7,10.46,0.173,20.66,110.4274,25.99,26.92,27.04,0,111.4,13.08,26.84,125.7
"2009-07-16 00:00:30",1065892,1.758,138.3,12.25,0.319,20.61,110.4298,26,26.94,27.39,0,111.4,13.08,26.84,100.3
"2009-07-16 00:01:00",1065893,1.788,145.8,14.63,0.383,20.68,110.4239,25.98,26.96,27.46,0,111.4,13.08,26.83,107.8
"2009-07-16 00:01:30",1065894,1.538,157.7,22,0.258,20.76,110.4093,25.95,26.94,27.56,0,111.4,13.08,26.79,119.7
"2009-07-16 00:02:00",1065895,1.108,155.5,9,0.284,20.83,110.3813,25.87,26.93,27.5,0,111.4,13.08,26.72,117.5
"2009-07-16 00:02:30",1065896,1.716,140.5,13.52,0.329,20.76,110.3544,25.81,26.88,27.45,0,111.4,13.08,26.65,102.5
"2009-07-16 00:03:00",1065897,1.918,165.5,15.34,0.625,20.82,110.3494,25.79,26.83,27.05,0,111.4,13.08,26.63,127.5
"2009-07-16 00:03:30",1065898,2.122,163,6.876,0.487,20.86,110.3504,25.79,26.79,25.43,0,111.4,13.08,26.64,125.0
"2009-07-16 00:04:00",1065899,1.712,141.7,7.206,0.3,20.79,110.3538,25.8,26.79,25.83,0,111.4,13.08,26.65,103.7
"2009-07-16 00:04:30",1065900,1.111,151.9,11.15,0.236,20.84,110.3706,25.85,26.81,25.74,0,111.4,13.08,26.69,113.9
"2009-07-16 00:05:00",1065901,1.239,145.3,6.014,0.235,20.77,110.3799,25.87,26.82,25.03,0,111.4,13.08,26.71,107.3
"2009-07-16 00:05:30",1065902,1.108,127.3,5.844,0.085,20.72,110.3932,25.9,26.83,26.17,0,111.4,13.08,26.75,89.3
"2009-07-16 00:06:00",1065903,1.216,120.6,6.12,0.108,20.76,110.4063,25.94,26.88,26.49,0,111.4,13.08,26.78,82.6
"2009-07-16 00:06:30",1065904,0.782,115.6,16.4,0.142,20.8,110.4102,25.95,26.9,26.31,0,111.4,13.08,26.79,77.6
"2009-07-16 00:07:00",1065905,0.93,109.6,4.833,0.126,20.87,110.4333,26.01,26.93,24.94,0,111.4,13.07,26.85,71.6
"2009-07-16 00:07:30",1065906,1.47,108.5,3.781,0.106,20.85,110.4388,26.02,26.95,23.65,0,111.4,13.07,26.86,70.5
"2009-07-16 00:08:00",1065907,1.848,104,4.201,0.16,20.8,110.4565,26.07,27,24.62,0,111.4,13.07,26.91,66.0
"2009-07-16 00:08:30",1065908,1.936,93.4,9.74,0.205,20.84,110.4679,26.1,27.04,24.63,0,111.4,13.07,26.94,55.4
"2009-07-16 00:09:00",1065909,2.333,92.9,4.91,0.278,20.88,110.4827,26.14,27.06,24.61,0,111.4,13.07,26.98,54.9
"2009-07-16 00:09:30",1065910,2.413,97,3.721,0.178,20.89,110.4972,26.17,27.11,25.06,0,111.4,13.07,27.02,59.0
"2009-07-16 00:10:00",1065911,2.405,104.6,2.348,0.265,20.94,110.5052,26.19,27.14,25.03,0,111.4,13.07,27.04,66.6
"2009-07-16 00:10:30",1065912,2.7,105.7,3.725,0.088,20.94,110.5251,26.24,27.16,24.92,0,111.4,13.07,27.09,67.7
"2009-07-16 00:11:00",1065913,2.812,99.5,3.892,0.111,21,110.5297,26.26,27.2,25.18,0,111.4,13.08,27.10,61.5
"2009-07-16 00:11:30",1065914,2.671,95.5,3.833,0.117,20.98,110.536,26.27,27.23,25.34,0,111.4,13.08,27.12,57.5
"2009-07-16 00:12:00",1065915,2.734,100.8,3.652,0.197,21,110.5455,26.3,27.27,25.46,0,111.4,13.08,27.14,62.8
"2009-07-16 00:12:30",1065916,2.112,98.4,5.102,0.221,20.98,110.5602,26.33,27.27,25.9,0,111.4,13.08,27.18,60.4
"2009-07-16 00:13:00",1065917,1.846,106.4,4.087,0.099,21.1,110.5642,26.34,27.3,25.8,0,111.4,13.07,27.19,68.4
"2009-07-16 00:13:30",1065918,1.926,103.6,3.087,0.178,21.17,110.564,26.34,27.32,24.86,0,111.4,13.07,27.19,65.6
"2009-07-16 00:14:00",1065919,2.519,103.8,8.56,0.226,21.03,110.5732,26.37,27.35,24.15,0,111.4,13.07,27.21,65.8
"2009-07-16 00:14:30",1065920,2.848,105.6,3.495,0.149,21.02,110.5753,26.37,27.36,26.44,0,111.4,13.07,27.22,67.6
"2009-07-16 00:15:00",1065921,2.434,112.4,3.757,0.199,21.1,110.5854,26.4,27.38,26.88,0,111.4,13.07,27.24,74.4
"2009-07-16 00:15:30",1065922,2.415,109.9,3.33,0.107,21,110.5935,26.42,27.38,26.93,0,111.4,13.07,27.26,71.9
"2009-07-16 00:16:00",1065923,2.474,96,7.738,0.231,21.05,110.5969,26.43,27.41,26.92,0,111.4,13.07,27.27,58.0
"2009-07-16 00:16:30",1065924,2.878,114.8,4.027,0.142,21.12,110.5972,26.43,27.41,27.02,0,111.4,13.07,27.27,76.8
"2009-07-16 00:17:00",1065925,2.77,111.5,4.774,0.197,21.15,110.596,26.43,27.42,27.03,0,111.4,13.07,27.27,73.5
"2009-07-16 00:17:30",1065926,2.756,117.1,6.382,0.234,21.15,110.597,26.43,27.42,26.96,0,111.4,13.07,27.27,79.1
"2009-07-16 00:18:00",1065927,2.499,116.4,7.265,0.272,21.12,110.5924,26.42,27.44,26.77,0,111.4,13.07,27.26,78.4
"2009-07-16 00:18:30",1065928,2.754,117.3,7.41,0.172,21.11,110.5861,26.4,27.43,26.72,0,111.4,13.07,27.24,79.3
"2009-07-16 00:19:00",1065929,2.698,113.2,5.966,0.334,21.16,110.575,26.37,27.43,26.79,0,111.4,13.07,27.22,75.2
"2009-07-16 00:19:30",1065930,3.007,105.5,3.46,0.299,21.15,110.5779,26.38,27.43,26.89,0,111.4,13.07,27.22,67.5
"2009-07-16 00:20:00",1065931,2.906,107.3,4.181,0.16,21.14,110.575,26.37,27.43,26.9,0,111.4,13.07,27.22,69.3
"2009-07-16 00:20:30",1065932,2.653,95.1,6.805,0.249,21.13,110.573,26.37,27.42,26.89,0,111.4,13.07,27.21,57.1
"2009-07-16 00:21:00",1065933,2.622,105.7,10.16,0.632,21.14,110.5706,26.36,27.42,26.76,0,111.4,13.07,27.20,67.7
"2009-07-16 00:21:30",1065934,2.925,106.8,3.462,0.252,21.21,110.5561,26.32,27.38,25.88,0,111.4,13.07,27.17,68.8
"2009-07-16 00:22:00",1065935,2.571,108.7,4.506,0.283,21.19,110.5504,26.31,27.38,25.38,0,111.4,13.07,27.15,70.7
"2009-07-16 00:22:30",1065936,2.544,120.9,3.173,0.179,21.21,110.5502,26.31,27.36,25.06,0,111.4,13.07,27.15,82.9
"2009-07-16 00:23:00",1065937,2.692,119.6,4.692,0.187,21.19,110.5431,26.29,27.34,25.8,0,111.4,13.07,27.13,81.6
"2009-07-16 00:23:30",1065938,2.761,117,4.938,0.199,21.2,110.5429,26.29,27.33,26.45,0,111.4,13.07,27.13,79.0
"2009-07-16 00:24:00",1065939,2.83,106.1,3.904,0.118,21.23,110.5464,26.3,27.34,26.28,0,111.4,13.07,27.14,68.1
"2009-07-16 00:24:30",1065940,2.909,102.2,4.792,0.108,21.25,110.5467,26.3,27.34,25.69,0,111.4,13.07,27.14,64.2
"2009-07-16 00:25:00",1065941,3.179,90.2,3.672,0.202,21.24,110.5479,26.3,27.33,25.8,0,111.4,13.07,27.15,52.2
"2009-07-16 00:25:30",1065942,3.731,81.5,3.334,0.31,21.21,110.5483,26.3,27.33,26.28,0,111.4,13.07,27.15,43.5
"2009-07-16 00:26:00",1065943,3.445,92.4,5.688,0.272,21.27,110.549,26.31,27.32,26.21,0,111.4,13.07,27.15,54.4
"2009-07-16 00:26:30",1065944,3.623,95.4,4.203,0.227,21.28,110.5521,26.31,27.32,26.28,0,111.4,13.07,27.16,57.4
"2009-07-16 00:27:00",1065945,3.804,107.3,5.427,0.184,21.27,110.5494,26.31,27.31,26.36,0,111.4,13.07,27.15,69.3
"2009-07-16 00:27:30",1065946,3.704,100.2,5.519,0.172,21.3,110.5466,26.3,27.33,26.32,0,111.4,13.07,27.14,62.2
"2009-07-16 00:28:00",1065947,4.241,93.2,3.836,0.174,21.34,110.5379,26.28,27.3,26.05,0,111.4,13.07,27.12,55.2
"2009-07-16 00:28:30",1065948,4.631,91.4,5.707,0.259,21.51,110.531,26.26,27.3,25.97,0,111.4,13.07,27.10,53.4
"2009-07-16 00:29:00",1065949,5.111,89.3,3.98,0.41,21.74,110.5282,26.25,27.29,25.91,0,111.4,13.07,27.10,51.3
"2009-07-16 00:29:30",1065950,4.725,88.7,8.4,0.304,21.89,110.522,26.24,27.28,26.03,0,111.4,13.07,27.08,50.7
"2009-07-16 00:30:00",1065951,4.66,102.8,3.624,0.182,22.04,110.5178,26.23,27.27,25.97,0,111.4,13.07,27.07,64.8
"2009-07-16 00:30:30",1065952,4.199,104.1,4.123,0.295,22.1,110.4985,26.18,27.26,26.04,0,111.4,13.07,27.02,66.1
"2009-07-16 00:31:00",1065953,3.983,94.7,4.954,0.204,22.12,110.4895,26.15,27.24,25.83,0,111.4,13.07,27.00,56.7
"2009-07-16 00:31:30",1065954,3.431,101.2,2.726,0.196,22.15,110.484,26.14,27.22,25.71,0,111.4,13.07,26.98,63.2
"2009-07-16 00:32:00",1065955,3.214,104.4,5.633,0.291,22.19,110.4629,26.08,27.19,25.66,0,111.4,13.07,26.93,66.4
"2009-07-16 00:32:30",1065956,4.242,98.3,6.485,0.564,22.21,110.4587,26.07,27.17,25.65,0,111.4,13.08,26.92,60.3
"2009-07-16 00:33:00",1065957,4.485,101.4,5.994,0.465,22.22,110.4377,26.02,27.14,25.55,0,111.4,13.08,26.86,63.4
"2009-07-16 00:33:30",1065958,3.554,103,4.833,0.247,22.23,110.427,25.99,27.11,25.58,0,111.4,13.08,26.83,65.0
"2009-07-16 00:34:00",1065959,3.692,89.5,6.038,0.264,22.18,110.4063,25.94,27.08,25.57,0,111.4,13.08,26.78,51.5
"2009-07-16 00:34:30",1065960,3.709,83.9,2.199,0.29,22.16,110.3942,25.91,27.04,25.65,0,111.4,13.08,26.75,45.9
"2009-07-16 00:35:00",1065961,4.034,83.4,3.77,0.253,21.99,110.374,25.86,27.01,25.46,0,111.3,13.08,26.70,45.4
"2009-07-16 00:35:30",1065962,3.477,88.7,4.091,0.399,21.85,110.3655,25.83,26.98,25.46,0,111.3,13.08,26.68,50.7
"2009-07-16 00:36:00",1065963,2.918,110.8,14.51,0.329,21.71,110.3541,25.8,26.95,26.03,0,111.3,13.08,26.65,72.8
"2009-07-16 00:36:30",1065964,2.628,120.4,6.934,0.08,21.63,110.3389,25.77,26.92,26.66,0,111.3,13.08,26.61,82.4
"2009-07-16 00:37:00",1065965,2.408,133.3,3.679,0.115,21.5,110.332,25.75,26.9,26.86,0,111.3,13.08,26.59,95.3
"2009-07-16 00:37:30",1065966,2.155,129.4,3.983,0.123,21.44,110.3192,25.71,26.87,27.12,0,111.3,13.09,26.56,91.4
"2009-07-16 00:38:00",1065967,2.243,110,2.989,0.239,21.39,110.3118,25.7,26.85,27.19,0,111.3,13.09,26.54,72.0
"2009-07-16 00:38:30",1065968,2.369,100,4.117,0.168,21.33,110.31,25.69,26.83,27.08,0,111.3,13.09,26.53,62.0
"2009-07-16 00:39:00",1065969,2.391,105.1,3.586,0.131,21.3,110.3147,25.7,26.81,26.94,0,111.3,13.09,26.54,67.1
"2009-07-16 00:39:30",1065970,2.793,100.5,1.959,0.151,21.28,110.3196,25.72,26.79,26.89,0,111.3,13.09,26.56,62.5
"2009-07-16 00:40:00",1065971,3.189,105.3,3.867,0.201,21.31,110.3177,25.71,26.77,26.52,0,111.3,13.08,26.55,67.3
"2009-07-16 00:40:30",1065972,2.943,101.2,3.097,0.124,21.24,110.3074,25.68,26.77,26.62,0,111.3,13.08,26.53,63.2
"2009-07-16 00:41:00",1065973,2.973,101.4,3.382,0.127,21.29,110.3015,25.67,26.75,26.44,0,111.3,13.08,26.51,63.4
"2009-07-16 00:41:30",1065974,2.5,102.1,7.917,0.23,21.28,110.299,25.66,26.74,26.42,0,111.3,13.08,26.50,64.1
"2009-07-16 00:42:00",1065975,3.06,96.4,5.433,0.155,21.26,110.2998,25.66,26.74,26.62,0,111.3,13.08,26.51,58.4
"2009-07-16 00:42:30",1065976,2.963,98.8,2.558,0.079,21.27,110.3012,25.67,26.74,26.55,0,111.3,13.08,26.51,60.8
"2009-07-16 00:43:00",1065977,2.646,97.2,3.236,0.104,21.32,110.3088,25.69,26.72,26.68,0,111.3,13.08,26.53,59.2
"2009-07-16 00:43:30",1065978,2.683,107.9,3.107,0.128,21.27,110.3158,25.71,26.73,26.68,0,111.3,13.08,26.55,69.9
"2009-07-16 00:44:00",1065979,2.876,115,3.314,0.08,21.25,110.3232,25.72,26.73,26.81,0,111.3,13.08,26.57,77.0
"2009-07-16 00:44:30",1065980,2.647,113,2.022,0.114,21.3,110.3243,25.73,26.74,26.68,0,111.3,13.08,26.57,75.0
"2009-07-16 00:45:00",1065981,2.635,100.2,4.664,0.156,21.3,110.3252,25.73,26.74,25.89,0,111.3,13.08,26.57,62.2
"2009-07-16 00:45:30",1065982,2.531,104.5,4.915,0.166,21.28,110.3273,25.74,26.74,25.69,0,111.3,13.09,26.58,66.5
"2009-07-16 00:46:00",1065983,2.685,97.1,3.631,0.262,21.27,110.3276,25.74,26.74,25.65,0,111.3,13.09,26.58,59.1
"2009-07-16 00:46:30",1065984,2.831,94.3,4.518,0.202,21.34,110.3349,25.76,26.76,25.69,0,111.3,13.09,26.60,56.3
"2009-07-16 00:47:00",1065985,2.813,95.8,4.086,0.19,21.36,110.336,25.76,26.78,25.74,0,111.3,13.09,26.60,57.8
"2009-07-16 00:47:30",1065986,2.563,101.8,2.609,0.187,21.33,110.3445,25.78,26.78,26.21,0,111.3,13.09,26.62,63.8
"2009-07-16 00:48:00",1065987,2.72,93.8,5.325,0.329,21.3,110.3571,25.81,26.79,25.82,0,111.3,13.09,26.65,55.8
"2009-07-16 00:48:30",1065988,2.672,93,1.925,0.135,21.24,110.363,25.83,26.81,24.98,0,111.3,13.09,26.67,55.0
"2009-07-16 00:49:00",1065989,2.477,104.1,5.721,0.202,21.31,110.3656,25.83,26.8,25.42,0,111.3,13.09,26.68,66.1
"2009-07-16 00:49:30",1065990,2.59,105.1,5.799,0.19,21.23,110.3653,25.83,26.81,25.06,0,111.3,13.09,26.68,67.1
"2009-07-16 00:50:00",1065991,2.821,98.6,4.965,0.283,21.31,110.3713,25.85,26.82,26.9,0,111.3,13.09,26.69,60.6
"2009-07-16 00:50:30",1065992,3.028,87.7,5.038,0.261,21.37,110.3753,25.86,26.85,27.24,0,111.3,13.09,26.70,49.7
"2009-07-16 00:51:00",1065993,2.909,87.2,5.068,0.383,21.34,110.3837,25.88,26.86,27.44,0,111.3,13.09,26.72,49.2
"2009-07-16 00:51:30",1065994,2.453,87.1,7.19,0.231,21.35,110.3963,25.91,26.88,27.42,0,111.3,13.09,26.76,49.1
"2009-07-16 00:52:00",1065995,2.37,81.1,6.288,0.209,21.31,110.4002,25.92,26.88,27.15,0,111.3,13.09,26.77,43.1
"2009-07-16 00:52:30",1065996,2.402,84.9,9.25,0.295,21.28,110.4005,25.92,26.9,27.11,0,111.3,13.09,26.77,46.9
"2009-07-16 00:53:00",1065997,2.034,105.6,6.028,0.09,21.26,110.4002,25.92,26.9,26.59,0,111.3,13.09,26.77,67.6
"2009-07-16 00:53:30",1065998,2.144,107.9,4.103,0.135,21.22,110.4005,25.92,26.91,26.76,0,111.3,13.09,26.77,69.9
"2009-07-16 00:54:00",1065999,2.277,101.8,8.08,0.248,21.25,110.4005,25.92,26.89,26.99,0,111.3,13.09,26.77,63.8
"2009-07-16 00:54:30",1066000,1.988,91.2,8.06,0.127,21.28,110.4005,25.92,26.9,27.17,0,111.3,13.09,26.77,53.2
"2009-07-16 00:55:00",1066001,1.736,104,6.735,0.123,21.22,110.4005,25.92,26.88,27.1,0,111.3,13.09,26.77,66.0
"2009-07-16 00:55:30",1066002,1.752,118.8,3.482,0.149,21.16,110.4008,25.92,26.89,27.11,0,111.3,13.09,26.77,80.8
"2009-07-16 00:56:00",1066003,1.929,117.9,10.17,0.29,21.21,110.4073,25.94,26.9,27.16,0,111.3,13.09,26.78,79.9
"2009-07-16 00:56:30",1066004,2.753,98.2,5.694,0.304,21.3,110.4087,25.94,26.9,27.07,0,111.3,13.09,26.79,60.2
"2009-07-16 00:57:00",1066005,2.303,121.1,10.2,0.222,21.22,110.4087,25.94,26.91,27.05,0,111.3,13.09,26.79,83.1
"2009-07-16 00:57:30",1066006,2.134,136.8,6.306,0.388,21.28,110.4033,25.93,26.91,26.97,0,111.3,13.08,26.77,98.8
"2009-07-16 00:58:00",1066007,2.937,122.1,3.288,0.152,21.29,110.4061,25.94,26.92,26.78,0,111.3,13.08,26.78,84.1
"2009-07-16 00:58:30",1066008,2.727,112.7,3.265,0.133,21.31,110.4087,25.94,26.91,26.57,0,111.3,13.08,26.79,74.7
"2009-07-16 00:59:00",1066009,2.508,108.7,5.267,0.207,21.37,110.415,25.96,26.92,26.5,0,111.3,13.08,26.80,70.7
"2009-07-16 00:59:30",1066010,3.061,105.8,4.64,0.415,21.41,110.4238,25.98,26.94,26.58,0,111.3,13.08,26.83,67.8
"2009-07-16 01:00:00",1066011,3.582,105.2,6.79,0.349,21.39,110.4286,26,26.94,26.42,0,111.3,13.08,26.84,67.2
"2009-07-16 01:00:30",1066012,3.56,110.2,4.194,0.23,21.4,110.4331,26.01,26.94,26.38,0,111.3,13.08,26.85,72.2
"2009-07-16 01:01:00",1066013,3.392,107,3.704,0.242,21.44,110.4339,26.01,26.95,26.3,0,111.3,13.08,26.85,69.0
"2009-07-16 01:01:30",1066014,3.016,110.3,4.438,0.187,21.51,110.4339,26.01,26.96,26.34,0,111.3,13.08,26.85,72.3
"2009-07-16 01:02:00",1066015,2.979,106.2,7.082,0.197,21.73,110.4342,26.01,26.98,26.35,0,111.3,13.08,26.85,68.2
"2009-07-16 01:02:30",1066016,3.099,94.6,4.147,0.315,21.86,110.4339,26.01,26.97,26.7,0,111.3,13.08,26.85,56.6
"2009-07-16 01:03:00",1066017,3.243,87.3,1.749,0.192,21.93,110.4339,26.01,26.98,26.75,0,111.3,13.09,26.85,49.3
"2009-07-16 01:03:30",1066018,3.555,87.9,2.6,0.412,21.99,110.4339,26.01,26.98,26.89,0,111.3,13.09,26.85,49.9
"2009-07-16 01:04:00",1066019,3.937,95,1.67,0.141,22.14,110.4331,26.01,26.98,26.67,0,111.3,13.09,26.85,57.0
"2009-07-16 01:04:30",1066020,4.164,93.5,1.219,0.174,22.19,110.4204,25.98,26.99,27.16,0,111.3,13.09,26.82,55.5
"2009-07-16 01:05:00",1066021,3.962,92.4,3.094,0.166,22.22,110.4092,25.95,26.99,27.26,0,111.3,13.09,26.79,54.4
"2009-07-16 01:05:30",1066022,3.822,92.8,2.036,0.131,22.2,110.4014,25.93,26.97,27.29,0,111.3,13.09,26.77,54.8
"2009-07-16 01:06:00",1066023,3.786,88.4,2.449,0.212,22.21,110.3991,25.92,26.97,27.31,0,111.3,13.09,26.76,50.4
"2009-07-16 01:06:30",1066024,3.952,87.4,2.515,0.185,22.26,110.3809,25.87,26.95,27.19,0,111.3,13.09,26.72,49.4
"2009-07-16 01:07:00",1066025,3.4,93.7,5.721,0.331,22.29,110.3674,25.84,26.94,26.99,0,111.3,13.09,26.68,55.7
"2009-07-16 01:07:30",1066026,3.801,89.7,3.157,0.273,22.32,110.3629,25.83,26.91,27.19,0,111.3,13.09,26.67,51.7
"2009-07-16 01:08:00",1066027,4.002,89.7,2.645,0.16,22.39,110.3418,25.77,26.88,27.34,0,111.3,13.09,26.61,51.7
"2009-07-16 01:08:30",1066028,3.391,98.9,2.871,0.413,22.38,110.3366,25.76,26.86,27.28,0,111.3,13.09,26.60,60.9
"2009-07-16 01:09:00",1066029,3.167,90.2,3.537,0.254,22.38,110.3267,25.73,26.85,27.22,0,111.3,13.09,26.58,52.2
"2009-07-16 01:09:30",1066030,3.17,87.5,3.75,0.247,22.38,110.3198,25.72,26.81,27.56,0,111.3,13.09,26.56,49.5
"2009-07-16 01:10:00",1066031,3.099,93.6,8.02,0.192,22.41,110.3188,25.71,26.79,27.61,0,111.3,13.09,26.56,55.6
"2009-07-16 01:10:30",1066032,2.736,97.8,7.269,0.197,22.39,110.3065,25.68,26.76,27.43,0,111.3,13.09,26.52,59.8
"2009-07-16 01:11:00",1066033,2.892,95.3,9.01,0.477,22.39,110.2971,25.66,26.75,27.33,0,111.3,13.09,26.50,57.3
"2009-07-16 01:11:30",1066034,3.484,85.6,4.012,0.121,22.37,110.2923,25.65,26.72,27.6,0,111.2,13.09,26.49,47.6
"2009-07-16 01:12:00",1066035,3.396,90.7,4.857,0.278,22.38,110.2789,25.61,26.69,27.79,0,111.2,13.09,26.45,52.7
"2009-07-16 01:12:30",1066036,3.174,73.36,5.224,0.229,22.36,110.2621,25.57,26.68,27.94,0,111.2,13.09,26.41,35.4
"2009-07-16 01:13:00",1066037,2.706,82,4.886,0.352,22.36,110.262,25.57,26.63,28.03,0,111.2,13.1,26.41,44.0
"2009-07-16 01:13:30",1066038,2.908,89,5.056,0.347,22.31,110.2434,25.52,26.62,28.17,0,111.2,13.1,26.36,51.0
"2009-07-16 01:14:00",1066039,3.207,83.1,4.099,0.246,22.27,110.2362,25.5,26.6,28.36,0,111.2,13.1,26.34,45.1
"2009-07-16 01:14:30",1066040,2.884,87,2.565,0.315,22.27,110.2357,25.5,26.58,28.45,0,111.2,13.09,26.34,49.0
"2009-07-16 01:15:00",1066041,3.14,81.7,4.293,0.294,22.23,110.2228,25.47,26.56,28.48,0,111.2,13.09,26.31,43.7
"2009-07-16 01:15:30",1066042,2.684,80.6,2.66,0.288,22.04,110.2076,25.43,26.51,28.58,0,111.2,13.09,26.27,42.6
"2009-07-16 01:16:00",1066043,3.04,86.1,2.569,0.154,21.98,110.202,25.41,26.52,28.71,0,111.2,13.09,26.25,48.1
"2009-07-16 01:16:30",1066044,2.854,77.35,2.851,0.343,21.92,110.2017,25.41,26.49,29.86,0,111.2,13.09,26.25,39.3
"2009-07-16 01:17:00",1066045,3.042,70.62,5.133,0.362,21.78,110.197,25.4,26.49,31.08,0,111.2,13.09,26.24,32.6
"2009-07-16 01:17:30",1066046,3.542,71.12,5.711,0.372,21.71,110.1835,25.37,26.47,32.2,0,111.2,13.09,26.21,33.1
"2009-07-16 01:18:00",1066047,2.994,68.62,6.703,0.38,21.67,110.1762,25.35,26.46,32.35,0,111.2,13.09,26.19,30.6
"2009-07-16 01:18:30",1066048,3.126,66.76,3.317,0.138,21.63,110.1689,25.33,26.44,32.26,0,111.2,13.09,26.17,28.8
"2009-07-16 01:19:00",1066049,3.056,81.2,9.54,0.22,21.78,110.1683,25.33,26.42,32,0,111.2,13.09,26.17,43.2
"2009-07-16 01:19:30",1066050,2.854,81.2,8.51,0.268,21.76,110.1684,25.33,26.41,31.29,0,111.2,13.1,26.17,43.2
"2009-07-16 01:20:00",1066051,3.437,77.15,5.095,0.31,21.67,110.1612,25.31,26.39,31.84,0,111.2,13.1,26.15,39.2
"2009-07-16 01:20:30",1066052,3.508,78.19,3.028,0.327,21.71,110.1493,25.28,26.38,33.14,0,111.2,13.1,26.12,40.2
"2009-07-16 01:21:00",1066053,3.084,77.93,5.187,0.336,21.71,110.1528,25.29,26.37,33.18,0,111.2,13.1,26.13,39.9
"2009-07-16 01:21:30",1066054,3.707,82.8,4.13,0.213,21.78,110.1491,25.28,26.36,33.36,0,111.2,13.1,26.12,44.8
"2009-07-16 01:22:00",1066055,4.059,87.3,2.145,0.256,21.88,110.1511,25.28,26.35,31.73,0,111.2,13.1,26.12,49.3
"2009-07-16 01:22:30",1066056,4.451,80.1,5.376,0.221,21.73,110.1525,25.29,26.33,32.46,0,111.2,13.1,26.13,42.1
"2009-07-16 01:23:00",1066057,4.499,80.1,2.913,0.228,21.85,110.1383,25.25,26.32,33.27,0,111.2,13.1,26.09,42.1
"2009-07-16 01:23:30",1066058,3.986,83.2,3.575,0.361,22,110.1323,25.23,26.3,32.35,0,111.2,13.1,26.07,45.2
"2009-07-16 01:24:00",1066059,4.09,94.1,5.782,0.168,22.18,110.1285,25.22,26.28,31.7,0,111.2,13.1,26.06,56.1
"2009-07-16 01:24:30",1066060,3.629,98.8,4.492,0.318,22.1,110.1249,25.22,26.3,31.66,0,111.2,13.1,26.06,60.8
"2009-07-16 01:25:00",1066061,3.272,93.1,4.281,0.218,22.2,110.1117,25.18,26.27,31.69,0,111.2,13.11,26.02,55.1
"2009-07-16 01:25:30",1066062,3.89,87.2,3.047,0.288,22.15,110.1033,25.16,26.24,32.15,0,111.2,13.11,26.00,49.2
"2009-07-16 01:26:00",1066063,4.041,88.2,3.673,0.238,22.16,110.0973,25.14,26.22,32.1,0,111.2,13.11,25.98,50.2
"2009-07-16 01:26:30",1066064,4.231,81.1,6.566,0.434,22.1,110.0986,25.15,26.21,32.34,0,111.2,13.11,25.99,43.1
"2009-07-16 01:27:00",1066065,4.298,74.03,2.864,0.366,22.14,110.0846,25.11,26.19,32.84,0,111.2,13.11,25.95,36.0
"2009-07-16 01:27:30",1066066,3.681,71.15,1.941,0.172,22.16,110.0753,25.09,26.18,32.79,0,111.2,13.11,25.93,33.2
"2009-07-16 01:28:00",1066067,4.056,78.36,3.338,0.119,22.24,110.0704,25.08,26.15,32.76,0,111.2,13.11,25.91,40.4
"2009-07-16 01:28:30",1066068,3.581,76.94,4.355,0.259,22.23,110.0699,25.07,26.13,32.98,0,111.2,13.11,25.91,38.9
"2009-07-16 01:29:00",1066069,3.309,73.61,1.624,0.182,22.2,110.0561,25.04,26.1,33.2,0,111.2,13.11,25.88,35.6
"2009-07-16 01:29:30",1066070,3.43,73.4,4.322,0.283,22.22,110.0396,25,26.09,33.32,0,111.2,13.11,25.84,35.4
"2009-07-16 01:30:00",1066071,3.275,66.67,3.221,0.137,22.21,110.037,24.99,26.07,33.52,0,111.2,13.11,25.83,28.7
"2009-07-16 01:30:30",1066072,3.002,71.64,6.681,0.257,22.26,110.0303,24.97,26.06,33.05,0,111.2,13.11,25.81,33.6
"2009-07-16 01:31:00",1066073,3.083,63.79,6.874,0.245,22.26,110.009,24.92,26.03,32.73,0,111.2,13.11,25.76,25.8
"2009-07-16 01:31:30",1066074,3.305,68.2,7.613,0.45,22.27,110.0037,24.9,26.01,32.8,0,111.2,13.11,25.74,30.2
"2009-07-16 01:32:00",1066075,3.053,72.76,6.042,0.205,22.33,109.9989,24.89,25.97,32.62,0,111.2,13.1,25.73,34.8
"2009-07-16 01:32:30",1066076,3.946,75.74,4.355,0.289,22.32,109.9852,24.86,25.95,32.69,0,111.2,13.1,25.70,37.7
"2009-07-16 01:33:00",1066077,3.763,76.43,4.897,0.221,22.34,109.9729,24.82,25.94,32.81,0,111.1,13.1,25.66,38.4
"2009-07-16 01:33:30",1066078,3.447,83.3,3.886,0.242,22.33,109.9725,24.82,25.93,32.73,0,111.2,13.11,25.66,45.3
"2009-07-16 01:34:00",1066079,3.345,94.1,3.917,0.343,22.36,109.9716,24.82,25.9,32.93,0,111.2,13.11,25.66,56.1
"2009-07-16 01:34:30",1066080,2.922,98.6,4.431,0.16,22.37,109.9571,24.78,25.88,33.24,0,111.1,13.11,25.62,60.6
"2009-07-16 01:35:00",1066081,2.938,93.2,2.65,0.245,22.36,109.9512,24.77,25.86,33.17,0,111.1,13.11,25.61,55.2
"2009-07-16 01:35:30",1066082,2.738,91,5.673,0.387,22.33,109.9536,24.78,25.83,32.9,0,111.1,13.11,25.61,53.0
"2009-07-16 01:36:00",1066083,2.727,94.2,7.378,0.177,22.36,109.9544,24.78,25.82,32.83,0,111.1,13.11,25.62,56.2
"2009-07-16 01:36:30",1066084,2.862,102.2,1.945,0.093,22.44,109.9402,24.74,25.8,32.34,0,111.1,13.11,25.58,64.2
"2009-07-16 01:37:00",1066085,2.799,100.5,4.512,0.181,22.4,109.9333,24.72,25.79,31.95,0,111.1,13.12,25.56,62.5
"2009-07-16 01:37:30",1066086,2.806,92.3,3.106,0.23,22.27,109.9292,24.71,25.77,32.59,0,111.1,13.12,25.55,54.3
"2009-07-16 01:38:00",1066087,3.08,95.7,4.066,0.276,22.27,109.9295,24.71,25.77,32.73,0,111.1,13.12,25.55,57.7
"2009-07-16 01:38:30",1066088,3.179,101.6,3.255,0.149,22.21,109.9231,24.7,25.74,32.31,0,111.1,13.12,25.54,63.6
"2009-07-16 01:39:00",1066089,2.772,103.2,5.228,0.112,22.05,109.9091,24.66,25.71,32.26,0,111.1,13.12,25.50,65.2
"2009-07-16 01:39:30",1066090,2.585,109,3.339,0.141,21.99,109.9036,24.65,25.71,32.07,0,111.1,13.12,25.48,71.0
"2009-07-16 01:40:00",1066091,2.612,97.4,7.76,0.11,21.93,109.9013,24.64,25.71,31.9,0,111.1,13.12,25.48,59.4
"2009-07-16 01:40:30",1066092,2.692,88.8,3.943,0.159,21.82,109.9035,24.65,25.7,32.19,0,111.1,13.12,25.48,50.8
"2009-07-16 01:41:00",1066093,2.508,81.7,3.081,0.171,21.76,109.9041,24.65,25.69,32.91,0,111.1,13.12,25.49,43.7
"2009-07-16 01:41:30",1066094,2.581,94.1,6.515,0.286,21.85,109.9044,24.65,25.68,32.37,0,111.1,13.12,25.49,56.1
"2009-07-16 01:42:00",1066095,3.024,95.7,7.13,0.328,21.81,109.9057,24.65,25.67,32.2,0,111.1,13.12,25.49,57.7
"2009-07-16 01:42:30",1066096,1.802,97.1,14.3,0.461,21.76,109.9057,24.65,25.67,32.26,0,111.1,13.12,25.49,59.1
"2009-07-16 01:43:00",1066097,2.23,76.13,7.796,0.305,21.83,109.9057,24.65,25.66,32.16,0,111.1,13.12,25.49,38.1
"2009-07-16 01:43:30",1066098,2.646,70.55,4.773,0.315,21.88,109.9057,24.65,25.67,32.1,0,111.1,13.12,25.49,32.6
"2009-07-16 01:44:00",1066099,3.586,77.71,3.049,0.288,21.84,109.9057,24.65,25.66,33.28,0,111.1,13.12,25.49,39.7
"2009-07-16 01:44:30",1066100,3.613,76.63,4.68,0.227,21.82,109.9057,24.65,25.67,34.08,0,111.1,13.12,25.49,38.6
"2009-07-16 01:45:00",1066101,3.434,85.2,5.402,0.247,22.02,109.9057,24.65,25.68,34.23,0,111.1,13.12,25.49,47.2
"2009-07-16 01:45:30",1066102,3.023,91,1.885,0.132,22.17,109.9059,24.65,25.68,33.21,0,111.1,13.12,25.49,53.0
"2009-07-16 01:46:00",1066103,3.361,90.6,4.446,0.252,22.06,109.9065,24.65,25.68,33.25,0,111.1,13.12,25.49,52.6
"2009-07-16 01:46:30",1066104,3.227,100.2,8.61,0.302,22.12,109.9057,24.65,25.68,33.3,0,111.1,13.12,25.49,62.2
"2009-07-16 01:47:00",1066105,3.002,86.7,16.24,0.385,22,109.9057,24.65,25.69,32.71,0,111.1,13.12,25.49,48.7
"2009-07-16 01:47:30",1066106,2.663,83.1,11.71,0.438,21.97,109.9057,24.65,25.68,34.1,0,111.1,13.12,25.49,45.1
"2009-07-16 01:48:00",1066107,2.26,94.7,5.774,0.299,22.06,109.9057,24.65,25.69,33.3,0,111.1,13.12,25.49,56.7